"Sample Date","Sample Time","Sample Value","Units","Flow Rate","Number Channels","Micron Size 0","Counts/Channel 0","Micron Size 1","Counts/Channel 1","Micron Size 2","Counts/Channel 2","Micron Size 3","Counts/Channel 3","Micron Size 4","Counts/Channel 4","Micron Size 5","Counts/Channel 5","Micron Size 6","Counts/Channel 6","Micron Size 7","Counts/Channel 7","Micron Size 8","Counts/Channel 8","Micron Size 9","Counts/Channel 9","Micron Size 10","Counts/Channel 10","Micron Size 11","Counts/Channel 11","Micron Size 12","Counts/Channel 12","Micron Size 13","Counts/Channel 13","Micron Size 14","Counts/Channel 14","Micron Size 15","Counts/Channel 15","Micron Size 16","Counts/Channel 16","Micron Size 17","Counts/Channel 17","Micron Size 18","Counts/Channel 18","Micron Size 19","Counts/Channel 19","Micron Size 20","Counts/Channel 20","Micron Size 21","Counts/Channel 21","Micron Size 22","Counts/Channel 22","Micron Size 23","Counts/Channel 23","Micron Size 24","Counts/Channel 24","Micron Size 25","Counts/Channel 25","Micron Size 26","Counts/Channel 26","Micron Size 27","Counts/Channel 27","Micron Size 28","Counts/Channel 28","Micron Size 29","Counts/Channel 29","Micron Size 30","Counts/Channel 30","Micron Size 31","Counts/Channel 31"
"05/09/08","09:00:00",304.000,"cc",28304.305,6,0.100,247.000,0.200,46.000,0.300,9.000,0.500,2.000,1.000,0,5.000,0
"05/09/08","09:00:06",260.000,"cc",28322.930,6,0.100,217.000,0.200,43.000,0.300,0,0.500,0,1.000,0,5.000,0
"05/09/08","09:00:12",292.000,"cc",28284.598,6,0.100,232.000,0.200,48.000,0.300,10.000,0.500,2.000,1.000,0,5.000,0
"05/09/08","09:00:18",257.000,"cc",28348.785,6,0.100,207.000,0.200,45.000,0.300,4.000,0.500,1.000,1.000,0,5.000,0
"05/09/08","09:00:24",257.000,"cc",28344.322,6,0.100,212.000,0.200,37.000,0.300,6.000,0.500,1.000,1.000,1.000,5.000,0
"05/09/08","09:00:30",295.000,"cc",28302.234,6,0.100,234.000,0.200,50.000,0.300,9.000,0.500,2.000,1.000,0,5.000,0
"05/09/08","09:00:36",274.000,"cc",28294.615,6,0.100,230.000,0.200,37.000,0.300,7.000,0.500,0,1.000,0,5.000,0
"05/09/08","09:00:42",289.000,"cc",28314.930,6,0.100,233.000,0.200,52.000,0.300,3.000,0.500,1.000,1.000,0,5.000,0
"05/09/08","09:00:48",271.000,"cc",28246.090,6,0.100,214.000,0.200,54.000,0.300,3.000,0.500,0,1.000,0,5.000,0
"05/09/08","09:00:54",254.000,"cc",28356.918,6,0.100,201.000,0.200,45.000,0.300,7.000,0.500,1.000,1.000,0,5.000,0
"05/09/08","09:01:00",267.000,"cc",28307.332,6,0.100,209.000,0.200,51.000,0.300,6.000,0.500,1.000,1.000,0,5.000,0
"05/09/08","09:01:06",283.000,"cc",28313.174,6,0.100,230.000,0.200,49.000,0.300,4.000,0.500,0,1.000,0,5.000,0
"05/09/08","09:01:12",249.000,"cc",28303.531,6,0.100,196.000,0.200,47.000,0.300,5.000,0.500,1.000,1.000,0,5.000,0
"05/09/08","09:01:18",253.000,"cc",28334.356,6,0.100,205.000,0.200,41.000,0.300,5.000,0.500,1.000,1.000,1.000,5.000,0
"05/09/08","09:01:24",270.000,"cc",28358.943,6,0.100,216.000,0.200,43.000,0.300,9.000,0.500,2.000,1.000,0,5.000,0
"05/09/08","09:01:30",272.000,"cc",28314.275,6,0.100,229.000,0.200,40.000,0.300,3.000,0.500,0,1.000,0,5.000,0
"05/09/08","09:01:36",220.000,"cc",28289.623,6,0.100,175.000,0.200,42.000,0.300,3.000,0.500,0,1.000,0,5.000,0
"05/09/08","09:01:42",256.000,"cc",28385.397,6,0.100,214.000,0.200,40.000,0.300,1.000,0.500,1.000,1.000,0,5.000,0
"05/09/08","09:01:48",241.000,"cc",28280.650,6,0.100,194.000,0.200,39.000,0.300,6.000,0.500,1.000,1.000,1.000,5.000,0
"05/09/08","09:01:54",255.000,"cc",28294.174,6,0.100,208.000,0.200,43.000,0.300,4.000,0.500,0,1.000,0,5.000,0
"05/09/08","09:02:00",267.000,"cc",28379.158,6,0.100,218.000,0.200,45.000,0.300,4.000,0.500,0,1.000,0,5.000,0
"05/09/08","09:02:06",227.000,"cc",28323.250,6,0.100,183.000,0.200,39.000,0.300,4.000,0.500,1.000,1.000,0,5.000,0
"05/09/08","09:02:12",261.000,"cc",28272.090,6,0.100,212.000,0.200,45.000,0.300,4.000,0.500,0,1.000,0,5.000,0
"05/09/08","09:02:18",266.000,"cc",28307.315,6,0.100,218.000,0.200,44.000,0.300,3.000,0.500,1.000,1.000,0,5.000,0
"05/09/08","09:02:24",236.000,"cc",28332.086,6,0.100,195.000,0.200,35.000,0.300,6.000,0.500,0,1.000,0,5.000,0
"05/09/08","09:02:30",217.000,"cc",28267.318,6,0.100,166.000,0.200,47.000,0.300,4.000,0.500,0,1.000,0,5.000,0
"05/09/08","09:02:36",220.000,"cc",28344.072,6,0.100,178.000,0.200,38.000,0.300,4.000,0.500,0,1.000,0,5.000,0
"05/09/08","09:02:42",208.000,"cc",28389.268,6,0.100,169.000,0.200,36.000,0.300,3.000,0.500,0,1.000,0,5.000,0
"05/09/08","09:02:48",204.000,"cc",28264.805,6,0.100,165.000,0.200,35.000,0.300,3.000,0.500,1.000,1.000,0,5.000,0
"05/09/08","09:02:54",220.000,"cc",28303.721,6,0.100,176.000,0.200,39.000,0.300,4.000,0.500,1.000,1.000,0,5.000,0
"05/09/08","09:03:00",207.000,"cc",28322.576,6,0.100,174.000,0.200,28.000,0.300,4.000,0.500,1.000,1.000,0,5.000,0
"05/09/08","09:03:06",206.000,"cc",28299.488,6,0.100,168.000,0.200,29.000,0.300,9.000,0.500,0,1.000,0,5.000,0
"05/09/08","09:03:12",205.000,"cc",28301.764,6,0.100,177.000,0.200,26.000,0.300,2.000,0.500,0,1.000,0,5.000,0
"05/09/08","09:03:18",222.000,"cc",28313.121,6,0.100,187.000,0.200,32.000,0.300,3.000,0.500,0,1.000,0,5.000,0
"05/09/08","09:03:24",206.000,"cc",28330.398,6,0.100,164.000,0.200,39.000,0.300,3.000,0.500,0,1.000,0,5.000,0
"05/09/08","09:03:30",205.000,"cc",28321.957,6,0.100,174.000,0.200,28.000,0.300,3.000,0.500,0,1.000,0,5.000,0
"05/09/08","09:03:36",215.000,"cc",28294.410,6,0.100,176.000,0.200,36.000,0.300,2.000,0.500,1.000,1.000,0,5.000,0
"05/09/08","09:03:42",231.000,"cc",28387.924,6,0.100,197.000,0.200,25.000,0.300,8.000,0.500,1.000,1.000,0,5.000,0
"05/09/08","09:03:48",223.000,"cc",28285.664,6,0.100,176.000,0.200,41.000,0.300,5.000,0.500,0,1.000,1.000,5.000,0
"05/09/08","09:03:54",198.000,"cc",28255.709,6,0.100,167.000,0.200,29.000,0.300,2.000,0.500,0,1.000,0,5.000,0
"05/09/08","09:04:00",190.000,"cc",28386.461,6,0.100,160.000,0.200,28.000,0.300,1.000,0.500,1.000,1.000,0,5.000,0
"05/09/08","09:04:06",185.000,"cc",28311.141,6,0.100,148.000,0.200,34.000,0.300,2.000,0.500,1.000,1.000,0,5.000,0
"05/09/08","09:04:12",212.000,"cc",28243.682,6,0.100,170.000,0.200,38.000,0.300,3.000,0.500,1.000,1.000,0,5.000,0
"05/09/08","09:04:18",202.000,"cc",28322.211,6,0.100,174.000,0.200,25.000,0.300,2.000,0.500,1.000,1.000,0,5.000,0
"05/09/08","09:04:24",179.000,"cc",28340.660,6,0.100,144.000,0.200,32.000,0.300,3.000,0.500,0,1.000,0,5.000,0
"05/09/08","09:04:30",181.000,"cc",28323.525,6,0.100,152.000,0.200,26.000,0.300,3.000,0.500,0,1.000,0,5.000,0
"05/09/08","09:04:36",182.000,"cc",28298.867,6,0.100,150.000,0.200,25.000,0.300,6.000,0.500,1.000,1.000,0,5.000,0
"05/09/08","09:04:42",194.000,"cc",28351.084,6,0.100,164.000,0.200,28.000,0.300,1.000,0.500,1.000,1.000,0,5.000,0
"05/09/08","09:04:48",198.000,"cc",28289.428,6,0.100,171.000,0.200,23.000,0.300,3.000,0.500,0,1.000,1.000,5.000,0
"05/09/08","09:04:54",186.000,"cc",28331.188,6,0.100,155.000,0.200,27.000,0.300,2.000,0.500,2.000,1.000,0,5.000,0
"05/09/08","09:05:00",191.000,"cc",28338.832,6,0.100,161.000,0.200,24.000,0.300,5.000,0.500,1.000,1.000,0,5.000,0
"05/09/08","09:05:06",188.000,"cc",28270.535,6,0.100,154.000,0.200,31.000,0.300,3.000,0.500,0,1.000,0,5.000,0
"05/09/08","09:05:12",183.000,"cc",28314.272,6,0.100,161.000,0.200,20.000,0.300,1.000,0.500,1.000,1.000,0,5.000,0
"05/09/08","09:05:18",189.000,"cc",28327.451,6,0.100,159.000,0.200,25.000,0.300,3.000,0.500,2.000,1.000,0,5.000,0
"05/09/08","09:05:24",210.000,"cc",28258.106,6,0.100,181.000,0.200,25.000,0.300,4.000,0.500,0,1.000,0,5.000,0
"05/09/08","09:05:30",187.000,"cc",28322.598,6,0.100,147.000,0.200,35.000,0.300,4.000,0.500,0,1.000,1.000,5.000,0
"05/09/08","09:05:36",145.000,"cc",28317.313,6,0.100,121.000,0.200,21.000,0.300,3.000,0.500,0,1.000,0,5.000,0
"05/09/08","09:05:42",181.000,"cc",28334.975,6,0.100,148.000,0.200,31.000,0.300,1.000,0.500,1.000,1.000,0,5.000,0
"05/09/08","09:05:48",162.000,"cc",28347.887,6,0.100,136.000,0.200,24.000,0.300,1.000,0.500,1.000,1.000,0,5.000,0
"05/09/08","09:05:54",139.000,"cc",28360.289,6,0.100,115.000,0.200,17.000,0.300,5.000,0.500,2.000,1.000,0,5.000,0
"05/09/08","09:06:00",191.000,"cc",28241.082,6,0.100,155.000,0.200,31.000,0.300,4.000,0.500,0,1.000,1.000,5.000,0
"05/09/08","09:06:06",183.000,"cc",28322.516,6,0.100,151.000,0.200,28.000,0.300,3.000,0.500,0,1.000,1.000,5.000,0
"05/09/08","09:06:12",172.000,"cc",28307.045,6,0.100,143.000,0.200,26.000,0.300,2.000,0.500,0,1.000,1.000,5.000,0
"05/09/08","09:06:18",161.000,"cc",28314.402,6,0.100,139.000,0.200,20.000,0.300,2.000,0.500,0,1.000,0,5.000,0
"05/09/08","09:06:24",136.000,"cc",28381.670,6,0.100,111.000,0.200,25.000,0.300,0,0.500,0,1.000,0,5.000,0
"05/09/08","09:06:30",187.000,"cc",28333.305,6,0.100,151.000,0.200,30.000,0.300,4.000,0.500,2.000,1.000,0,5.000,0
"05/09/08","09:06:36",172.000,"cc",28325.496,6,0.100,144.000,0.200,24.000,0.300,3.000,0.500,0,1.000,1.000,5.000,0
"05/09/08","09:06:42",187.000,"cc",28304.223,6,0.100,160.000,0.200,22.000,0.300,2.000,0.500,3.000,1.000,0,5.000,0
"05/09/08","09:06:48",184.000,"cc",28238.707,6,0.100,158.000,0.200,20.000,0.300,2.000,0.500,4.000,1.000,0,5.000,0
"05/09/08","09:06:54",174.000,"cc",28282.973,6,0.100,140.000,0.200,28.000,0.300,6.000,0.500,0,1.000,0,5.000,0
"05/09/08","09:07:00",166.000,"cc",28313.994,6,0.100,134.000,0.200,29.000,0.300,3.000,0.500,0,1.000,0,5.000,0
"05/09/08","09:07:06",171.000,"cc",28392.777,6,0.100,148.000,0.200,20.000,0.300,3.000,0.500,0,1.000,0,5.000,0
"05/09/08","09:07:12",188.000,"cc",28297.342,6,0.100,154.000,0.200,32.000,0.300,2.000,0.500,0,1.000,0,5.000,0
"05/09/08","09:07:18",161.000,"cc",28324.828,6,0.100,134.000,0.200,26.000,0.300,1.000,0.500,0,1.000,0,5.000,0
"05/09/08","09:07:24",157.000,"cc",28353.065,6,0.100,133.000,0.200,21.000,0.300,2.000,0.500,1.000,1.000,0,5.000,0
"05/09/08","09:07:30",164.000,"cc",28366.121,6,0.100,136.000,0.200,24.000,0.300,4.000,0.500,0,1.000,0,5.000,0
"05/09/08","09:07:36",204.000,"cc",28303.385,6,0.100,165.000,0.200,37.000,0.300,1.000,0.500,1.000,1.000,0,5.000,0
"05/09/08","09:07:42",148.000,"cc",28349.410,6,0.100,123.000,0.200,23.000,0.300,2.000,0.500,0,1.000,0,5.000,0
"05/09/08","09:07:48",196.000,"cc",28335.047,6,0.100,162.000,0.200,30.000,0.300,3.000,0.500,1.000,1.000,0,5.000,0
"05/09/08","09:07:54",167.000,"cc",28263.787,6,0.100,137.000,0.200,25.000,0.300,5.000,0.500,0,1.000,0,5.000,0
"05/09/08","09:08:00",179.000,"cc",28290.453,6,0.100,154.000,0.200,22.000,0.300,2.000,0.500,1.000,1.000,0,5.000,0
"05/09/08","09:08:06",171.000,"cc",28346.072,6,0.100,148.000,0.200,20.000,0.300,2.000,0.500,0,1.000,1.000,5.000,0
"05/09/08","09:08:12",185.000,"cc",28297.926,6,0.100,155.000,0.200,27.000,0.300,1.000,0.500,1.000,1.000,1.000,5.000,0
"05/09/08","09:08:18",183.000,"cc",28274.527,6,0.100,165.000,0.200,16.000,0.300,1.000,0.500,1.000,1.000,0,5.000,0
"05/09/08","09:08:24",159.000,"cc",28365.902,6,0.100,128.000,0.200,29.000,0.300,2.000,0.500,0,1.000,0,5.000,0
"05/09/08","09:08:30",176.000,"cc",28288.844,6,0.100,143.000,0.200,32.000,0.300,1.000,0.500,0,1.000,0,5.000,0
"05/09/08","09:08:36",148.000,"cc",28301.074,6,0.100,123.000,0.200,25.000,0.300,0,0.500,0,1.000,0,5.000,0
"05/09/08","09:08:42",188.000,"cc",28288.072,6,0.100,163.000,0.200,23.000,0.300,2.000,0.500,0,1.000,0,5.000,0
"05/09/08","09:08:48",174.000,"cc",28357.820,6,0.100,144.000,0.200,25.000,0.300,4.000,0.500,0,1.000,1.000,5.000,0
"05/09/08","09:08:54",157.000,"cc",28341.557,6,0.100,134.000,0.200,22.000,0.300,1.000,0.500,0,1.000,0,5.000,0
"05/09/08","09:09:00",167.000,"cc",28367.039,6,0.100,142.000,0.200,22.000,0.300,2.000,0.500,1.000,1.000,0,5.000,0
"05/09/08","09:09:06",173.000,"cc",28294.863,6,0.100,146.000,0.200,23.000,0.300,4.000,0.500,0,1.000,0,5.000,0
"05/09/08","09:09:12",187.000,"cc",28292.367,6,0.100,156.000,0.200,26.000,0.300,4.000,0.500,1.000,1.000,0,5.000,0
"05/09/08","09:09:18",174.000,"cc",28369.238,6,0.100,141.000,0.200,27.000,0.300,2.000,0.500,3.000,1.000,1.000,5.000,0
"05/09/08","09:09:24",148.000,"cc",28290.602,6,0.100,126.000,0.200,22.000,0.300,0,0.500,0,1.000,0,5.000,0
"05/09/08","09:09:30",187.000,"cc",28330.326,6,0.100,153.000,0.200,30.000,0.300,2.000,0.500,2.000,1.000,0,5.000,0
"05/09/08","09:09:36",184.000,"cc",28271.234,6,0.100,153.000,0.200,24.000,0.300,5.000,0.500,2.000,1.000,0,5.000,0
"05/09/08","09:09:42",166.000,"cc",28363.404,6,0.100,138.000,0.200,23.000,0.300,3.000,0.500,2.000,1.000,0,5.000,0
"05/09/08","09:09:48",172.000,"cc",28257.680,6,0.100,140.000,0.200,27.000,0.300,5.000,0.500,0,1.000,0,5.000,0
"05/09/08","09:09:54",182.000,"cc",28348.777,6,0.100,147.000,0.200,31.000,0.300,3.000,0.500,1.000,1.000,0,5.000,0
"05/09/08","09:10:00",188.000,"cc",28371.436,6,0.100,159.000,0.200,26.000,0.300,1.000,0.500,1.000,1.000,1.000,5.000,0
"05/09/08","09:10:06",158.000,"cc",28307.740,6,0.100,136.000,0.200,22.000,0.300,0,0.500,0,1.000,0,5.000,0
"05/09/08","09:10:12",206.000,"cc",28264.877,6,0.100,171.000,0.200,34.000,0.300,0,0.500,0,1.000,1.000,5.000,0
"05/09/08","09:10:18",172.000,"cc",28318.164,6,0.100,151.000,0.200,18.000,0.300,2.000,0.500,1.000,1.000,0,5.000,0
"05/09/08","09:10:24",149.000,"cc",28310.807,6,0.100,123.000,0.200,20.000,0.300,6.000,0.500,0,1.000,0,5.000,0
"05/09/08","09:10:30",161.000,"cc",28364.131,6,0.100,127.000,0.200,33.000,0.300,1.000,0.500,0,1.000,0,5.000,0
"05/09/08","09:10:36",199.000,"cc",28296.209,6,0.100,169.000,0.200,23.000,0.300,5.000,0.500,1.000,1.000,1.000,5.000,0
"05/09/08","09:10:42",174.000,"cc",28256.363,6,0.100,150.000,0.200,20.000,0.300,2.000,0.500,2.000,1.000,0,5.000,0
"05/09/08","09:10:48",169.000,"cc",28296.842,6,0.100,144.000,0.200,21.000,0.300,2.000,0.500,2.000,1.000,0,5.000,0
"05/09/08","09:10:54",181.000,"cc",28305.908,6,0.100,149.000,0.200,27.000,0.300,3.000,0.500,1.000,1.000,1.000,5.000,0
"05/09/08","09:11:00",171.000,"cc",28304.051,6,0.100,144.000,0.200,24.000,0.300,1.000,0.500,1.000,1.000,1.000,5.000,0
"05/09/08","09:11:06",166.000,"cc",28325.262,6,0.100,135.000,0.200,26.000,0.300,4.000,0.500,0,1.000,1.000,5.000,0
"05/09/08","09:11:12",184.000,"cc",28335.859,6,0.100,166.000,0.200,15.000,0.300,2.000,0.500,0,1.000,1.000,5.000,0
"05/09/08","09:11:18",244.000,"cc",28360.772,6,0.100,162.000,0.200,44.000,0.300,13.000,0.500,15.000,1.000,10.000,5.000,0
"05/09/08","09:11:24",194.000,"cc",28328.668,6,0.100,157.000,0.200,24.000,0.300,3.000,0.500,5.000,1.000,5.000,5.000,0
"05/09/08","09:11:30",175.000,"cc",28264.965,6,0.100,152.000,0.200,21.000,0.300,0,0.500,2.000,1.000,0,5.000,0
"05/09/08","09:11:36",166.000,"cc",28352.359,6,0.100,148.000,0.200,17.000,0.300,1.000,0.500,0,1.000,0,5.000,0
"05/09/08","09:11:42",164.000,"cc",28348.316,6,0.100,146.000,0.200,15.000,0.300,2.000,0.500,1.000,1.000,0,5.000,0
"05/09/08","09:11:48",199.000,"cc",28279.922,6,0.100,170.000,0.200,27.000,0.300,2.000,0.500,0,1.000,0,5.000,0
"05/09/08","09:11:54",160.000,"cc",28313.436,6,0.100,135.000,0.200,21.000,0.300,4.000,0.500,0,1.000,0,5.000,0
"05/09/08","09:12:00",182.000,"cc",28316.580,6,0.100,154.000,0.200,26.000,0.300,1.000,0.500,1.000,1.000,0,5.000,0
"05/09/08","09:12:06",180.000,"cc",28340.307,6,0.100,152.000,0.200,20.000,0.300,5.000,0.500,3.000,1.000,0,5.000,0
"05/09/08","09:12:12",164.000,"cc",28305.234,6,0.100,137.000,0.200,27.000,0.300,0,0.500,0,1.000,0,5.000,0
"05/09/08","09:12:18",171.000,"cc",28312.772,6,0.100,143.000,0.200,24.000,0.300,4.000,0.500,0,1.000,0,5.000,0
"05/09/08","09:12:24",170.000,"cc",28290.975,6,0.100,141.000,0.200,25.000,0.300,3.000,0.500,1.000,1.000,0,5.000,0
"05/09/08","09:12:30",184.000,"cc",28316.436,6,0.100,153.000,0.200,27.000,0.300,1.000,0.500,3.000,1.000,0,5.000,0
"05/09/08","09:12:36",168.000,"cc",28275.496,6,0.100,137.000,0.200,27.000,0.300,2.000,0.500,2.000,1.000,0,5.000,0
"05/09/08","09:12:42",185.000,"cc",28378.389,6,0.100,155.000,0.200,27.000,0.300,2.000,0.500,1.000,1.000,0,5.000,0
"05/09/08","09:12:48",179.000,"cc",28305.156,6,0.100,141.000,0.200,34.000,0.300,2.000,0.500,1.000,1.000,1.000,5.000,0
"05/09/08","09:12:54",165.000,"cc",28308.232,6,0.100,134.000,0.200,30.000,0.300,1.000,0.500,0,1.000,0,5.000,0
"05/09/08","09:13:00",164.000,"cc",28239.156,6,0.100,141.000,0.200,18.000,0.300,4.000,0.500,0,1.000,1.000,5.000,0
"05/09/08","09:13:06",171.000,"cc",28331.940,6,0.100,145.000,0.200,21.000,0.300,3.000,0.500,2.000,1.000,0,5.000,0
"05/09/08","09:13:12",204.000,"cc",28346.318,6,0.100,171.000,0.200,25.000,0.300,7.000,0.500,1.000,1.000,0,5.000,0
"05/09/08","09:13:18",175.000,"cc",28291.990,6,0.100,146.000,0.200,25.000,0.300,3.000,0.500,1.000,1.000,0,5.000,0
"05/09/08","09:13:24",187.000,"cc",28309.248,6,0.100,163.000,0.200,20.000,0.300,2.000,0.500,2.000,1.000,0,5.000,0
"05/09/08","09:13:30",174.000,"cc",28329.449,6,0.100,149.000,0.200,23.000,0.300,1.000,0.500,1.000,1.000,0,5.000,0
"05/09/08","09:13:36",177.000,"cc",28320.830,6,0.100,155.000,0.200,18.000,0.300,3.000,0.500,1.000,1.000,0,5.000,0
"05/09/08","09:13:42",181.000,"cc",28312.152,6,0.100,145.000,0.200,29.000,0.300,5.000,0.500,2.000,1.000,0,5.000,0
"05/09/08","09:13:48",180.000,"cc",28323.906,6,0.100,143.000,0.200,34.000,0.300,1.000,0.500,0,1.000,2.000,5.000,0
"05/09/08","09:13:54",174.000,"cc",28330.643,6,0.100,150.000,0.200,20.000,0.300,4.000,0.500,0,1.000,0,5.000,0
"05/09/08","09:14:00",174.000,"cc",28342.703,6,0.100,150.000,0.200,23.000,0.300,0,0.500,1.000,1.000,0,5.000,0
"05/09/08","09:14:06",162.000,"cc",28303.496,6,0.100,134.000,0.200,25.000,0.300,2.000,0.500,1.000,1.000,0,5.000,0
"05/09/08","09:14:12",164.000,"cc",28306.910,6,0.100,132.000,0.200,29.000,0.300,2.000,0.500,1.000,1.000,0,5.000,0
"05/09/08","09:14:18",216.000,"cc",28345.971,6,0.100,181.000,0.200,32.000,0.300,3.000,0.500,0,1.000,0,5.000,0
"05/09/08","09:14:24",156.000,"cc",28384.106,6,0.100,137.000,0.200,14.000,0.300,1.000,0.500,2.000,1.000,2.000,5.000,0
"05/09/08","09:14:30",174.000,"cc",28250.947,6,0.100,150.000,0.200,20.000,0.300,4.000,0.500,0,1.000,0,5.000,0
"05/09/08","09:14:36",171.000,"cc",28261.186,6,0.100,141.000,0.200,27.000,0.300,3.000,0.500,0,1.000,0,5.000,0
"05/09/08","09:14:42",181.000,"cc",28320.170,6,0.100,146.000,0.200,28.000,0.300,4.000,0.500,2.000,1.000,1.000,5.000,0
"05/09/08","09:14:48",178.000,"cc",28330.768,6,0.100,153.000,0.200,21.000,0.300,3.000,0.500,0,1.000,1.000,5.000,0
"05/09/08","09:14:54",179.000,"cc",28315.697,6,0.100,146.000,0.200,31.000,0.300,2.000,0.500,0,1.000,0,5.000,0
"05/09/08","09:15:00",203.000,"cc",28304.346,6,0.100,180.000,0.200,22.000,0.300,1.000,0.500,0,1.000,0,5.000,0
"05/09/08","09:15:06",198.000,"cc",28381.871,6,0.100,173.000,0.200,21.000,0.300,4.000,0.500,0,1.000,0,5.000,0
"05/09/08","09:15:12",196.000,"cc",28322.018,6,0.100,167.000,0.200,28.000,0.300,1.000,0.500,0,1.000,0,5.000,0
"05/09/08","09:15:18",177.000,"cc",28316.371,6,0.100,152.000,0.200,18.000,0.300,6.000,0.500,0,1.000,1.000,5.000,0
"05/09/08","09:15:24",207.000,"cc",28294.676,6,0.100,181.000,0.200,23.000,0.300,2.000,0.500,1.000,1.000,0,5.000,0
"05/09/08","09:15:30",185.000,"cc",28313.766,6,0.100,155.000,0.200,27.000,0.300,3.000,0.500,0,1.000,0,5.000,0
"05/09/08","09:15:36",174.000,"cc",28322.133,6,0.100,139.000,0.200,33.000,0.300,1.000,0.500,1.000,1.000,0,5.000,0
"05/09/08","09:15:42",203.000,"cc",28325.496,6,0.100,168.000,0.200,29.000,0.300,5.000,0.500,1.000,1.000,0,5.000,0
"05/09/08","09:15:48",183.000,"cc",28328.309,6,0.100,153.000,0.200,30.000,0.300,0,0.500,0,1.000,0,5.000,0
"05/09/08","09:15:54",180.000,"cc",28291.787,6,0.100,149.000,0.200,29.000,0.300,1.000,0.500,0,1.000,1.000,5.000,0
"05/09/08","09:16:00",187.000,"cc",28273.248,6,0.100,150.000,0.200,34.000,0.300,2.000,0.500,1.000,1.000,0,5.000,0
"05/09/08","09:16:06",192.000,"cc",28350.137,6,0.100,160.000,0.200,27.000,0.300,2.000,0.500,2.000,1.000,1.000,5.000,0
"05/09/08","09:16:12",195.000,"cc",28334.981,6,0.100,170.000,0.200,23.000,0.300,1.000,0.500,1.000,1.000,0,5.000,0
"05/09/08","09:16:18",179.000,"cc",28291.842,6,0.100,151.000,0.200,25.000,0.300,2.000,0.500,1.000,1.000,0,5.000,0
"05/09/08","09:16:24",185.000,"cc",28290.893,6,0.100,158.000,0.200,24.000,0.300,3.000,0.500,0,1.000,0,5.000,0
"05/09/08","09:16:30",187.000,"cc",28326.041,6,0.100,154.000,0.200,25.000,0.300,7.000,0.500,1.000,1.000,0,5.000,0
"05/09/08","09:16:36",220.000,"cc",28367.133,6,0.100,186.000,0.200,33.000,0.300,1.000,0.500,0,1.000,0,5.000,0
"05/09/08","09:16:42",176.000,"cc",28309.166,6,0.100,153.000,0.200,21.000,0.300,2.000,0.500,0,1.000,0,5.000,0
"05/09/08","09:16:48",186.000,"cc",28286.352,6,0.100,162.000,0.200,22.000,0.300,2.000,0.500,0,1.000,0,5.000,0
"05/09/08","09:16:54",181.000,"cc",28341.625,6,0.100,153.000,0.200,28.000,0.300,0,0.500,0,1.000,0,5.000,0
"05/09/08","09:17:00",210.000,"cc",28301.381,6,0.100,178.000,0.200,29.000,0.300,1.000,0.500,2.000,1.000,0,5.000,0
"05/09/08","09:17:06",207.000,"cc",28357.088,6,0.100,182.000,0.200,20.000,0.300,5.000,0.500,0,1.000,0,5.000,0
"05/09/08","09:17:12",214.000,"cc",28273.809,6,0.100,184.000,0.200,29.000,0.300,0,0.500,1.000,1.000,0,5.000,0
"05/09/08","09:17:18",163.000,"cc",28284.424,6,0.100,146.000,0.200,16.000,0.300,0,0.500,1.000,1.000,0,5.000,0
"05/09/08","09:17:24",204.000,"cc",28332.867,6,0.100,173.000,0.200,28.000,0.300,2.000,0.500,1.000,1.000,0,5.000,0
"05/09/08","09:17:30",208.000,"cc",28250.787,6,0.100,173.000,0.200,32.000,0.300,2.000,0.500,1.000,1.000,0,5.000,0
"05/09/08","09:17:36",156.000,"cc",28358.197,6,0.100,133.000,0.200,21.000,0.300,2.000,0.500,0,1.000,0,5.000,0
"05/09/08","09:17:42",204.000,"cc",28367.643,6,0.100,173.000,0.200,28.000,0.300,3.000,0.500,0,1.000,0,5.000,0
"05/09/08","09:17:48",194.000,"cc",28309.492,6,0.100,175.000,0.200,18.000,0.300,1.000,0.500,0,1.000,0,5.000,0
"05/09/08","09:17:54",195.000,"cc",28286.475,6,0.100,159.000,0.200,31.000,0.300,3.000,0.500,2.000,1.000,0,5.000,0
"05/09/08","09:18:00",172.000,"cc",28287.488,6,0.100,149.000,0.200,22.000,0.300,1.000,0.500,0,1.000,0,5.000,0
"05/09/08","09:18:06",201.000,"cc",28316.793,6,0.100,172.000,0.200,23.000,0.300,4.000,0.500,2.000,1.000,0,5.000,0
"05/09/08","09:18:12",196.000,"cc",28305.809,6,0.100,164.000,0.200,30.000,0.300,2.000,0.500,0,1.000,0,5.000,0
"05/09/08","09:18:18",187.000,"cc",28339.428,6,0.100,162.000,0.200,21.000,0.300,4.000,0.500,0,1.000,0,5.000,0
"05/09/08","09:18:24",186.000,"cc",28286.727,6,0.100,157.000,0.200,27.000,0.300,2.000,0.500,0,1.000,0,5.000,0
"05/09/08","09:18:30",211.000,"cc",28279.469,6,0.100,173.000,0.200,29.000,0.300,6.000,0.500,2.000,1.000,1.000,5.000,0
"05/09/08","09:18:36",207.000,"cc",28289.082,6,0.100,185.000,0.200,20.000,0.300,2.000,0.500,0,1.000,0,5.000,0
"05/09/08","09:18:42",200.000,"cc",28335.664,6,0.100,162.000,0.200,35.000,0.300,3.000,0.500,0,1.000,0,5.000,0
"05/09/08","09:18:48",182.000,"cc",28309.604,6,0.100,149.000,0.200,28.000,0.300,3.000,0.500,2.000,1.000,0,5.000,0
"05/09/08","09:18:54",191.000,"cc",28352.041,6,0.100,165.000,0.200,24.000,0.300,2.000,0.500,0,1.000,0,5.000,0
"05/09/08","09:19:00",191.000,"cc",28365.826,6,0.100,161.000,0.200,29.000,0.300,1.000,0.500,0,1.000,0,5.000,0
"05/09/08","09:19:06",176.000,"cc",28302.949,6,0.100,149.000,0.200,26.000,0.300,1.000,0.500,0,1.000,0,5.000,0
"05/09/08","09:19:12",208.000,"cc",28252.074,6,0.100,166.000,0.200,35.000,0.300,4.000,0.500,1.000,1.000,1.000,5.000,1.000
"05/09/08","09:19:18",190.000,"cc",28351.139,6,0.100,155.000,0.200,31.000,0.300,2.000,0.500,1.000,1.000,1.000,5.000,0
"05/09/08","09:19:24",191.000,"cc",28268.289,6,0.100,165.000,0.200,24.000,0.300,2.000,0.500,0,1.000,0,5.000,0
"05/09/08","09:19:30",168.000,"cc",28347.693,6,0.100,142.000,0.200,24.000,0.300,2.000,0.500,0,1.000,0,5.000,0
"05/09/08","09:19:36",211.000,"cc",28359.906,6,0.100,170.000,0.200,35.000,0.300,6.000,0.500,0,1.000,0,5.000,0
"05/09/08","09:19:42",173.000,"cc",28358.883,6,0.100,145.000,0.200,26.000,0.300,2.000,0.500,0,1.000,0,5.000,0
"05/09/08","09:19:48",177.000,"cc",28312.479,6,0.100,149.000,0.200,26.000,0.300,2.000,0.500,0,1.000,0,5.000,0
"05/09/08","09:19:54",181.000,"cc",28325.113,6,0.100,157.000,0.200,22.000,0.300,2.000,0.500,0,1.000,0,5.000,0